THAICOM 5

导读 | 豆包AI

THAICOM 5又称泰星5号,是泰国(TH)的通信卫星,由泰国卫星公司Thaicom Public Company运营。该卫星于北京时间2006年5月27日8时发射,定点于东经78.5°地球静止轨道,替代原泰星3号工作。泰星5号信号覆盖中国华南、西南等区域,国内多地可用小型偏馈天线接收其信号,为亚太地区提供通信广播服务。

Basic Information
目录编号:
29163
目录名称:
THAICOM 5
国际标识:
2006-020B
轨道中心:
EARTH
卫星名称:
THAICOM 5
卫星全名:
--
卫星状态:
在轨 (已飞行7279 天)
发射日期:
2006-05-27 UTC
国别 :
(TH)
星等 :
--
Orbit Information
数据来源 国际轨道数据 AOE轨道数据
星历时间 2026-05-01T06:12:20+0800
13小时前
查看轨道信息
2026-05-01T06:00:00+0800
14小时前
查看轨道信息
半长轴 42467.096km 42467.153km
偏心率 0.0001746 0.0001725
轨道倾角 5.896° 5.896°
近地点辐角 178.618° 176.823°
升交点赤经 73.292° 73.294°
平近点角 353.251° 351.986°
近地点 36081.544km 36081.69km
远地点 36096.374km 36096.342km
周期 1451.572分钟 1451.575分钟
每日圈数 0.992028 0.992026
Detailed Information
使用方式:
暂无
2D Orbit Map
3D Orbit Map
Orbit Altitude Analysis Chart
Orbit Inclination Analysis Chart
Orbit Comprehensive Analysis Chart
View Comprehensive Chart